User: anonymous   Login
Location: Oshawa
(43.9000°N, 78.8670°W)
Time: 04:03:56
(UTC-04:00)
Language:

PAYLOAD A - Orbit

View from above orbital plane
View from above orbital plane
View from above satellite
View from above satellite

Ground track
Ground track

The orbit data is extracted from the following two-line orbital elements,

1 27840U 03031A   17234.50535313 -.00000015 +00000-0 +89551-5 0  9990
2 27840 098.2086 229.1686 0096982 279.3047 079.7184 14.38886084742757
Epoch (UTC): 22 August 2017 12:07:42
Eccentricity: 0.0096982
inclination: 98.2086°
perigee height: 693 km
apogee height: 831 km
right ascension of ascending node: 229.1686°
argument of perigee: 279.3047°
revolutions per day: 14.38886084
mean anomaly at epoch: 79.7184°
orbit number at epoch: 74275

The dashed part of the orbit path shows where the satellite is in the earth's shadow,  

DLR